Change the Weather History Date:

Thursday, December 5, 2013

  Actual Average Record
Temperature  
Mean Temperature 0 °F -  
Max Temperature 8 °F 29 °F 42 °F (2001)
Min Temperature -11 °F 14 °F -13 °F (2000)
Degree Days  
Heating Degree Days 66    
Moisture  
Dew Point -7 °F    
Average Humidity 79    
Maximum Humidity 85    
Minimum Humidity 66    
Precipitation  
Precipitation 0.00 in - - ()
Sea Level Pressure  
Sea Level Pressure 29.96 in    
Wind  
Wind Speed 16 mph (West)    
Max Wind Speed 21 mph    
Max Gust Speed 28 mph    
Visibility 8 miles    
Events Snow    
Averages and records for this station are not official NWS values.
T = Trace of Precipitation, MM = Missing Value Source: NWS Daily Summary

Daily Weather History Graph

Daily Weather History Graph

Search for Another Location

Airport or City:

Trip Planner

Search our weather history database for the weather conditions in past years. The results will help you decide how hot, cold, wet, or windy it might be!

Date:

Astronomy

Dec. 05, 2013 Rise Set
Actual Time 7:46 AM CST 4:32 PM CST
Civil Twilight 7:12 AM CST 5:07 PM CST
Nautical Twilight 6:34 AM CST 5:45 PM CST
Astronomical Twilight 5:58 AM CST 6:21 PM CST
Moon 10:02 AM CST (12/5) 8:00 PM CST (12/5)
Length of Visible Light 9h 55m
Length of Day
8h 46m
Waxing Crescent, 11% of the Moon is Illuminated
Dec 5
Waxing Crescent
Dec 9
First Quarter
Dec 17
Full
Dec 25
Last Quarter
Jan 1
New

Hourly Weather History & Observations

Time (CST) Temp. Windchill Dew Point Humidity Pressure Visibility Wind Dir Wind Speed Gust Speed Precip Events Conditions
12:13 AM 8.6 °F -8.9 °F 5.0 °F 85% 29.61 in 4.0 mi WNW 16.1 mph 24.2 mph N/A Snow Light Snow
12:33 AM 8.6 °F -9.5 °F 3.2 °F 79% 29.63 in 5.0 mi West 17.3 mph - N/A Snow Light Snow
12:54 AM 6.8 °F -12.4 °F 3.2 °F 85% 29.64 in 7.0 mi West 18.4 mph 21.9 mph N/A   Overcast
1:13 AM 6.8 °F -10.7 °F 3.2 °F 85% 29.66 in 7.0 mi West 15.0 mph 23.0 mph N/A   Overcast
1:33 AM 6.8 °F -11.3 °F 1.4 °F 79% 29.67 in 7.0 mi West 16.1 mph - N/A   Overcast
1:54 AM 6.8 °F -11.8 °F 1.4 °F 79% 29.67 in 4.0 mi West 17.3 mph 23.0 mph N/A Snow Light Snow
2:13 AM 6.8 °F -11.8 °F 1.4 °F 79% 29.69 in 2.5 mi WNW 17.3 mph - N/A Snow Light Snow
2:34 AM 5.0 °F -15.7 °F 1.4 °F 85% 29.70 in 2.5 mi WNW 20.7 mph 26.5 mph N/A Snow Light Snow
2:53 AM 5.0 °F -15.2 °F 1.4 °F 85% 29.71 in 2.5 mi West 19.6 mph 27.6 mph N/A Snow Light Snow
3:13 AM 3.2 °F -17.6 °F -0.4 °F 85% 29.72 in 3.0 mi WNW 19.6 mph 26.5 mph N/A Snow Light Snow
3:33 AM 3.2 °F -16.5 °F -0.4 °F 85% 29.72 in 4.0 mi West 17.3 mph 24.2 mph N/A Snow Light Snow
3:53 AM 3.2 °F -16.5 °F -0.4 °F 85% 29.73 in 4.0 mi West 17.3 mph 24.2 mph N/A   Overcast
4:13 AM 1.4 °F -19.4 °F -2.2 °F 85% 29.75 in 7.0 mi West 18.4 mph - N/A   Overcast
4:34 AM 1.4 °F -18.8 °F -2.2 °F 85% 29.76 in 7.0 mi West 17.3 mph 25.3 mph N/A   Mostly Cloudy
4:53 AM 1.4 °F -17.6 °F -2.2 °F 85% 29.77 in 7.0 mi WNW 15.0 mph - N/A   Overcast
5:13 AM 1.4 °F -19.4 °F -2.2 °F 85% 29.78 in 7.0 mi West 18.4 mph - N/A   Overcast
5:33 AM 1.4 °F -17.6 °F -4.0 °F 78% 29.79 in 10.0 mi WNW 15.0 mph - N/A   Overcast
5:53 AM 1.4 °F -18.2 °F -2.2 °F 85% 29.80 in 7.0 mi West 16.1 mph 20.7 mph N/A   Overcast
6:13 AM 1.4 °F -19.4 °F -2.2 °F 85% 29.80 in 5.0 mi West 18.4 mph 24.2 mph N/A   Overcast
6:33 AM 1.4 °F -19.9 °F -2.2 °F 85% 29.82 in 4.0 mi West 19.6 mph 24.2 mph N/A   Overcast
6:53 AM -0.4 °F -21.2 °F -4.0 °F 85% 29.82 in 7.0 mi West 17.3 mph - N/A   Overcast
7:13 AM -0.4 °F -21.7 °F -5.8 °F 78% 29.84 in 7.0 mi West 18.4 mph - N/A   Overcast
7:33 AM -0.4 °F -18.4 °F -5.8 °F 78% 29.85 in 10.0 mi West 12.7 mph 23.0 mph N/A   Overcast
7:53 AM -2.2 °F -21.5 °F -7.6 °F 78% 29.86 in 10.0 mi West 13.8 mph - N/A   Overcast
8:13 AM -2.2 °F -22.2 °F -7.6 °F 78% 29.87 in 10.0 mi West 15.0 mph - N/A   Overcast
8:33 AM -2.2 °F -21.5 °F -7.6 °F 78% 29.87 in 10.0 mi West 13.8 mph - N/A   Overcast
8:53 AM -2.2 °F -24.1 °F -7.6 °F 78% 29.89 in 10.0 mi West 18.4 mph - N/A   Overcast
9:13 AM -2.2 °F -23.5 °F -7.6 °F 78% 29.90 in 10.0 mi West 17.3 mph 23.0 mph N/A   Mostly Cloudy
9:33 AM -2.2 °F -23.5 °F -7.6 °F 78% 29.91 in 5.0 mi West 17.3 mph 21.9 mph N/A   Haze
9:53 AM -0.4 °F -19.2 °F -7.6 °F 72% 29.93 in 10.0 mi West 13.8 mph 19.6 mph N/A   Mostly Cloudy
10:13 AM -0.4 °F -19.9 °F -7.6 °F 72% 29.95 in 10.0 mi West 15.0 mph - N/A   Scattered Clouds
10:33 AM -0.4 °F -19.9 °F -7.6 °F 72% 29.96 in 10.0 mi West 15.0 mph 21.9 mph N/A   Clear
10:54 AM -0.4 °F -21.7 °F -7.6 °F 72% 29.98 in 10.0 mi West 18.4 mph - N/A   Clear
11:13 AM -0.4 °F -21.7 °F -7.6 °F 72% 29.98 in 7.0 mi West 18.4 mph 25.3 mph N/A   Clear
11:33 AM -0.4 °F -22.3 °F -5.8 °F 78% 29.98 in 7.0 mi West 19.6 mph 26.5 mph N/A   Clear
11:54 AM -0.4 °F -22.3 °F -5.8 °F 78% 29.99 in 5.0 mi West 19.6 mph 24.2 mph N/A   Haze
12:13 PM 1.4 °F -19.9 °F -5.8 °F 72% 30.00 in 7.0 mi West 19.6 mph 26.5 mph N/A   Clear
12:33 PM 1.4 °F -17.6 °F -5.8 °F 72% 30.01 in 7.0 mi West 15.0 mph - N/A   Clear
12:54 PM 1.4 °F -17.6 °F -5.8 °F 72% 30.02 in 10.0 mi West 15.0 mph - N/A   Clear
1:13 PM 1.4 °F -19.9 °F -7.6 °F 66% 30.02 in 10.0 mi West 19.6 mph 24.2 mph N/A   Clear
1:33 PM 1.4 °F -17.6 °F -5.8 °F 72% 30.02 in 10.0 mi West 15.0 mph 23.0 mph N/A   Clear
1:53 PM 1.4 °F -19.4 °F -7.6 °F 66% 30.03 in 10.0 mi West 18.4 mph 23.0 mph N/A   Clear
2:13 PM 1.4 °F -18.2 °F -5.8 °F 72% 30.03 in 10.0 mi West 16.1 mph 23.0 mph N/A   Clear
2:34 PM -0.4 °F -21.7 °F -7.6 °F 72% 30.03 in 10.0 mi West 18.4 mph - N/A   Clear
2:53 PM -0.4 °F -22.3 °F -7.6 °F 72% 30.04 in 7.0 mi West 19.6 mph 24.2 mph N/A   Clear
3:13 PM -0.4 °F -20.5 °F -7.6 °F 72% 30.04 in 10.0 mi West 16.1 mph - N/A   Clear
3:34 PM -0.4 °F -20.5 °F -7.6 °F 72% 30.05 in 10.0 mi West 16.1 mph 21.9 mph N/A   Clear
3:53 PM -2.2 °F -21.5 °F -7.6 °F 78% 30.06 in 10.0 mi West 13.8 mph 19.6 mph N/A   Clear
4:13 PM -2.2 °F -18.0 °F -7.6 °F 78% 30.08 in 10.0 mi West 9.2 mph - N/A   Clear
4:34 PM -4.0 °F -21.2 °F -9.4 °F 78% 30.08 in 10.0 mi West 10.4 mph - N/A   Clear
4:53 PM -4.0 °F -21.2 °F -9.4 °F 78% 30.08 in 10.0 mi West 10.4 mph - N/A   Clear
5:13 PM -5.8 °F -21.2 °F -9.4 °F 84% 30.08 in 10.0 mi West 8.1 mph - N/A   Clear
5:33 PM -5.8 °F -24.4 °F -9.4 °F 84% 30.09 in 10.0 mi West 11.5 mph - N/A   Clear
5:53 PM -5.8 °F -21.2 °F -11.2 °F 77% 30.10 in 10.0 mi West 8.1 mph - N/A   Clear
6:13 PM -7.6 °F -24.6 °F -11.2 °F 84% 30.11 in 10.0 mi West 9.2 mph - N/A   Clear
6:34 PM -7.6 °F -26.6 °F -11.2 °F 84% 30.11 in 10.0 mi West 11.5 mph - N/A   Clear
6:53 PM -7.6 °F -25.7 °F -11.2 °F 84% 30.13 in 10.0 mi West 10.4 mph - N/A   Clear
7:13 PM -7.6 °F -24.6 °F -11.2 °F 84% 30.14 in 10.0 mi West 9.2 mph - N/A   Clear
7:34 PM -7.6 °F -23.4 °F -11.2 °F 84% 30.15 in 10.0 mi West 8.1 mph - N/A   Clear
7:53 PM -7.6 °F -25.7 °F -11.2 °F 84% 30.16 in 10.0 mi West 10.4 mph - N/A   Clear
8:13 PM -7.6 °F -24.6 °F -11.2 °F 84% 30.17 in 10.0 mi West 9.2 mph - N/A   Clear
8:34 PM -7.6 °F -25.7 °F -11.2 °F 84% 30.18 in 10.0 mi West 10.4 mph - N/A   Clear
8:53 PM -7.6 °F -24.6 °F -11.2 °F 84% 30.18 in 10.0 mi West 9.2 mph - N/A   Clear
9:14 PM -9.4 °F -25.6 °F -13.0 °F 84% 30.19 in 10.0 mi West 8.1 mph - N/A   Clear
9:33 PM -9.4 °F -26.8 °F -14.8 °F 77% 30.19 in 10.0 mi West 9.2 mph - N/A   Clear
9:53 PM -9.4 °F -26.8 °F -14.8 °F 77% 30.20 in 10.0 mi West 9.2 mph - N/A   Clear
10:13 PM -9.4 °F -26.8 °F -14.8 °F 77% 30.20 in 10.0 mi West 9.2 mph - N/A   Clear
10:33 PM -9.4 °F -26.8 °F -14.8 °F 77% 30.21 in 10.0 mi West 9.2 mph - N/A   Clear
10:53 PM -9.4 °F -27.9 °F -13.0 °F 84% 30.22 in 10.0 mi West 10.4 mph - N/A   Clear
11:13 PM -9.4 °F -27.9 °F -14.8 °F 77% 30.22 in 10.0 mi West 10.4 mph - N/A   Clear
11:33 PM -9.4 °F -27.9 °F -14.8 °F 77% 30.24 in 10.0 mi West 10.4 mph - N/A   Clear
11:53 PM -11.2 °F -27.8 °F -14.8 °F 84% 30.24 in 10.0 mi West 8.1 mph - N/A   Clear